Language: 


Des rapports , des résumés tant et plus, au choix de chacun....


Données statistiques de la station
Quotidien Rapport Janvier 26, 2018 Unités:  Anglais    Métrique   les deux
« Précédent Jour
Suivant Jour »
Quotidien Hebdomadaire Mensuel Annuel Actuel
  Haut: Bas: Moyen:
Température: TemperatureC °F 2.6 °F 5.6 °F
Pt de rosée: DewpointC °F 3.0 °F 5.5 °F
Humidité: Humidity % 87 % 96 %
Vitesse du vent: WindSpeedKMH mph 0.0 mph 2.1 mph
Rafales: WindSpeedGustKMH mph - -
Vent:- - WSW
Pression: PressurehPa in 1011.1 in -
Précipitation: 0.0 in    
Historical Graphs
 
 
Données statistiques pour Janvier 26, 2018
Heure Température Point de rosée Pression Vent Vitesse du vent Refales Humidité Pluie (taux horaire)
TemperatureC °F DewpointC °F PressurehPa in Calm     Humidity % HourlyPrecipMM in
00:04 5.9 °F 6.0 °F 1011.1 in SW 4.0 mph 9.3 mph 98 % 0.0 in
00:09 5.8 °F 6.0 °F 1011.1 in Calm   7.9 mph 98 % 0.0 in
00:14 5.8 °F 6.0 °F 1011.1 in Calm   7.2 mph 98 % 0.0 in
00:19 5.7 °F 6.0 °F 1011.1 in SSW 5.0 mph 7.2 mph 98 % 0.0 in
00:24 5.7 °F 6.0 °F 1011.1 in South 4.7 mph 6.9 mph 98 % 0.0 in
00:29 5.7 °F 6.0 °F 1011.1 in South 5.8 mph 6.9 mph 98 % 0.0 in
00:34 5.7 °F 6.0 °F 1011.1 in SSW 7.6 mph 9.0 mph 98 % 0.0 in
00:39 5.6 °F 6.0 °F 1011.1 in South 2.6 mph 9.0 mph 98 % 0.0 in
00:44 5.5 °F 6.0 °F 1011.1 in Calm   6.4 mph 98 % 0.0 in
00:49 5.4 °F 6.0 °F 1011.1 in Calm   5.5 mph 98 % 0.0 in
00:54 5.2 °F 5.0 °F 1011.1 in Calm   3.2 mph 98 % 0.0 in
00:59 5.0 °F 5.0 °F 1011.1 in Calm   3.2 mph 98 % 0.0 in
01:04 5.0 °F 5.0 °F 1011.1 in Calm   4.0 mph 98 % 0.0 in
01:09 5.0 °F 5.0 °F 1011.1 in SSW 2.6 mph 4.7 mph 98 % 0.0 in
01:14 5.0 °F 5.0 °F 1011.1 in Calm   6.1 mph 98 % 0.0 in
01:19 5.0 °F 5.0 °F 1011.1 in Calm   6.4 mph 98 % 0.0 in
01:24 5.0 °F 5.0 °F 1011.1 in South 5.0 mph 6.4 mph 98 % 0.0 in
01:29 5.0 °F 5.0 °F 1011.1 in Calm   6.9 mph 98 % 0.0 in
01:34 5.0 °F 5.0 °F 1011.1 in Calm   6.9 mph 98 % 0.0 in
01:39 5.0 °F 5.0 °F 1011.1 in Calm   4.7 mph 98 % 0.0 in
01:44 5.0 °F 5.0 °F 1011.1 in South 3.2 mph 8.7 mph 98 % 0.0 in
01:49 4.9 °F 5.0 °F 1012.1 in Calm   8.7 mph 98 % 0.0 in
01:54 4.9 °F 5.0 °F 1012.1 in SSE 5.0 mph 8.7 mph 98 % 0.0 in
01:59 4.9 °F 5.0 °F 1012.1 in Calm   8.7 mph 98 % 0.0 in
02:04 4.8 °F 5.0 °F 1012.1 in Calm   9.3 mph 98 % 0.0 in
02:09 4.8 °F 5.0 °F 1012.1 in Calm   9.3 mph 98 % 0.0 in
02:14 4.7 °F 5.0 °F 1011.1 in SSW 2.6 mph 6.4 mph 98 % 0.0 in
02:19 4.7 °F 5.0 °F 1011.1 in SSW 3.2 mph 6.4 mph 98 % 0.0 in
02:24 4.7 °F 5.0 °F 1011.1 in Calm   6.4 mph 98 % 0.0 in
02:29 4.7 °F 5.0 °F 1011.1 in Calm   1.8 mph 98 % 0.0 in
02:34 4.6 °F 5.0 °F 1011.1 in Calm     98 % 0.0 in
02:39 4.5 °F 5.0 °F 1011.1 in Calm   2.6 mph 98 % 0.0 in
02:44 4.4 °F 4.0 °F 1011.1 in Calm   3.2 mph 98 % 0.0 in
02:49 4.3 °F 4.0 °F 1011.1 in Calm   4.7 mph 98 % 0.0 in
02:55 4.3 °F 4.0 °F 1011.1 in South 5.0 mph 5.0 mph 98 % 0.0 in
03:00 4.3 °F 4.0 °F 1011.1 in Calm   6.4 mph 98 % 0.0 in
03:05 4.4 °F 4.0 °F 1011.1 in South 5.0 mph 6.4 mph 98 % 0.0 in
03:10 4.4 °F 4.0 °F 1011.1 in South 5.5 mph 6.4 mph 98 % 0.0 in
03:15 4.4 °F 4.0 °F 1011.1 in South 7.6 mph 9.0 mph 98 % 0.0 in
03:20 4.3 °F 4.0 °F 1011.1 in South 8.7 mph 9.3 mph 98 % 0.0 in
03:25 4.3 °F 4.0 °F 1011.1 in SSW 6.9 mph 9.3 mph 98 % 0.0 in
03:30 4.4 °F 4.0 °F 1011.1 in Calm   7.9 mph 98 % 0.0 in
03:35 4.3 °F 4.0 °F 1011.1 in Calm   6.9 mph 98 % 0.0 in
03:40 4.3 °F 4.0 °F 1011.1 in South 4.0 mph 5.0 mph 98 % 0.0 in
03:45 4.1 °F 4.0 °F 1011.1 in Calm   5.8 mph 98 % 0.0 in
03:50 4.1 °F 4.0 °F 1011.1 in Calm   6.1 mph 98 % 0.0 in
03:55 4.1 °F 4.0 °F 1011.1 in South 2.1 mph 8.7 mph 98 % 0.0 in
04:00 4.1 °F 4.0 °F 1011.1 in SSE 6.9 mph 9.0 mph 98 % 0.0 in
04:05 4.1 °F 4.0 °F 1011.1 in Calm   10.1 mph 98 % 0.0 in
04:10 4.2 °F 4.0 °F 1011.1 in SSW 8.7 mph 10.1 mph 98 % 0.0 in
04:16 4.2 °F 4.0 °F 1011.1 in SSW 2.1 mph 10.1 mph 98 % 0.0 in
04:21 4.2 °F 4.0 °F 1011.1 in South 4.0 mph 10.1 mph 98 % 0.0 in
04:26 4.1 °F 4.0 °F 1011.1 in South 1.8 mph 6.9 mph 98 % 0.0 in
04:31 4.0 °F 4.0 °F 1012.1 in Calm   4.7 mph 98 % 0.0 in
04:36 3.9 °F 4.0 °F 1012.1 in Calm   3.2 mph 98 % 0.0 in
04:41 3.8 °F 4.0 °F 1012.1 in Calm   3.2 mph 98 % 0.0 in
04:46 3.6 °F 4.0 °F 1011.1 in Calm   3.2 mph 98 % 0.0 in
04:51 3.5 °F 4.0 °F 1011.1 in Calm   1.4 mph 98 % 0.0 in
04:56 3.5 °F 4.0 °F 1011.1 in Calm   1.4 mph 98 % 0.0 in
05:01 3.5 °F 4.0 °F 1011.1 in Calm     98 % 0.0 in
05:06 3.6 °F 4.0 °F 1011.1 in Calm   4.3 mph 98 % 0.0 in
05:11 3.6 °F 4.0 °F 1011.1 in Calm   4.3 mph 98 % 0.0 in
05:16 3.5 °F 4.0 °F 1012.1 in Calm     98 % 0.0 in
05:21 3.5 °F 4.0 °F 1012.1 in Calm   4.3 mph 98 % 0.0 in
05:26 3.4 °F 3.0 °F 1012.1 in Calm   5.5 mph 98 % 0.0 in
05:31 3.4 °F 3.0 °F 1012.1 in Calm   6.4 mph 98 % 0.0 in
05:36 3.4 °F 3.0 °F 1012.1 in South 8.7 mph 8.7 mph 98 % 0.0 in
05:41 3.4 °F 3.0 °F 1012.1 in Calm   8.7 mph 98 % 0.0 in
05:46 3.4 °F 3.0 °F 1012.1 in Calm   8.7 mph 98 % 0.0 in
05:51 3.5 °F 4.0 °F 1012.1 in Calm   5.0 mph 98 % 0.0 in
05:56 3.6 °F 4.0 °F 1012.1 in Calm   6.1 mph 98 % 0.0 in
06:01 3.6 °F 4.0 °F 1013.1 in Calm   6.1 mph 98 % 0.0 in
06:06 3.6 °F 4.0 °F 1013.1 in Calm   4.7 mph 98 % 0.0 in
06:12 3.6 °F 4.0 °F 1013.1 in Calm   4.7 mph 98 % 0.0 in
06:17 3.6 °F 4.0 °F 1013.1 in Calm   5.5 mph 98 % 0.0 in
06:22 3.5 °F 4.0 °F 1013.1 in Calm   9.3 mph 98 % 0.0 in
06:27 3.6 °F 4.0 °F 1013.1 in SSE 10.1 mph 10.1 mph 98 % 0.0 in
06:32 3.6 °F 4.0 °F 1013.1 in South 9.3 mph 10.5 mph 98 % 0.0 in
06:37 3.6 °F 4.0 °F 1013.1 in South 5.8 mph 10.5 mph 98 % 0.0 in
06:42 3.6 °F 4.0 °F 1013.1 in Calm   9.3 mph 98 % 0.0 in
06:47 3.6 °F 4.0 °F 1013.1 in SSW 3.5 mph 8.7 mph 98 % 0.0 in
06:52 3.5 °F 4.0 °F 1013.1 in South 3.2 mph 5.0 mph 98 % 0.0 in
06:57 3.6 °F 4.0 °F 1013.1 in Calm   4.3 mph 98 % 0.0 in
07:02 3.6 °F 4.0 °F 1013.1 in Calm   6.4 mph 98 % 0.0 in
07:07 3.7 °F 4.0 °F 1013.1 in Calm   6.4 mph 98 % 0.0 in
07:12 3.5 °F 4.0 °F 1013.1 in Calm   5.8 mph 98 % 0.0 in
07:17 3.4 °F 3.0 °F 1012.1 in Calm     98 % 0.0 in
07:22 3.2 °F 3.0 °F 1012.1 in Calm     98 % 0.0 in
07:27 3.1 °F 3.0 °F 1012.1 in Calm     98 % 0.0 in
07:32 3.1 °F 3.0 °F 1013.1 in Calm     98 % 0.0 in
07:37 3.1 °F 3.0 °F 1013.1 in Calm     98 % 0.0 in
07:42 3.0 °F 3.0 °F 1013.1 in Calm     98 % 0.0 in
07:47 3.0 °F 3.0 °F 1013.1 in Calm     98 % 0.0 in
07:52 2.9 °F 3.0 °F 1013.1 in Calm   1.4 mph 98 % 0.0 in
07:57 2.9 °F 3.0 °F 1013.1 in Calm   1.8 mph 98 % 0.0 in
08:02 3.0 °F 3.0 °F 1013.1 in Calm   1.8 mph 98 % 0.0 in
08:07 3.0 °F 3.0 °F 1013.1 in Calm   1.4 mph 98 % 0.0 in
08:12 3.0 °F 3.0 °F 1013.1 in Calm   1.4 mph 98 % 0.0 in
08:17 3.0 °F 3.0 °F 1014.1 in Calm     98 % 0.0 in
08:22 3.0 °F 3.0 °F 1014.1 in Calm   1.4 mph 98 % 0.0 in
08:27 2.8 °F 3.0 °F 1014.1 in Calm   1.4 mph 98 % 0.0 in
08:32 2.8 °F 3.0 °F 1014.1 in Calm     98 % 0.0 in
08:37 2.8 °F 3.0 °F 1014.1 in Calm     98 % 0.0 in
08:42 2.8 °F 3.0 °F 1014.1 in Calm     98 % 0.0 in
08:47 2.7 °F 3.0 °F 1015.1 in Calm     98 % 0.0 in
08:52 2.6 °F 3.0 °F 1015.1 in Calm     98 % 0.0 in
08:57 2.7 °F 3.0 °F 1015.1 in Calm     98 % 0.0 in
09:00 2.7 °F 3.0 °F 1015.1 in Calm     98 % 0.0 in
09:05 2.8 °F 3.0 °F 1015.1 in Calm     98 % 0.0 in
09:11 2.9 °F 3.0 °F 1015.1 in Calm   2.6 mph 98 % 0.0 in
09:16 3.1 °F 3.0 °F 1015.1 in South 1.4 mph 2.6 mph 98 % 0.0 in
09:21 3.3 °F 3.0 °F 1015.1 in Calm   1.4 mph 98 % 0.0 in
09:26 3.4 °F 3.0 °F 1015.1 in Calm   1.4 mph 98 % 0.0 in
09:31 3.6 °F 4.0 °F 1015.1 in Calm   3.2 mph 98 % 0.0 in
09:36 3.7 °F 4.0 °F 1015.1 in Calm   3.2 mph 98 % 0.0 in
09:41 3.8 °F 4.0 °F 1015.1 in Calm     98 % 0.0 in
09:46 3.8 °F 4.0 °F 1015.1 in Calm     98 % 0.0 in
09:51 3.8 °F 4.0 °F 1015.1 in Calm   4.3 mph 98 % 0.0 in
09:56 3.8 °F 4.0 °F 1015.1 in Calm   4.3 mph 98 % 0.0 in
10:01 3.9 °F 4.0 °F 1016.1 in Calm     98 % 0.0 in
10:06 4.1 °F 4.0 °F 1016.1 in Calm     98 % 0.0 in
10:11 4.4 °F 4.0 °F 1016.1 in Calm     98 % 0.0 in
10:16 4.5 °F 5.0 °F 1016.1 in Calm   3.2 mph 98 % 0.0 in
10:21 4.7 °F 5.0 °F 1016.1 in Calm   7.2 mph 98 % 0.0 in
10:26 5.0 °F 5.0 °F 1016.1 in Calm   7.2 mph 98 % 0.0 in
10:31 5.1 °F 5.0 °F 1016.1 in South 4.7 mph 5.8 mph 98 % 0.0 in
10:36 5.1 °F 5.0 °F 1016.1 in Calm   9.3 mph 98 % 0.0 in
10:41 5.3 °F 6.0 °F 1016.1 in South 2.6 mph 9.3 mph 98 % 0.0 in
10:46 5.3 °F 6.0 °F 1016.8 in Calm   2.6 mph 98 % 0.0 in
10:51 5.3 °F 6.0 °F 1016.8 in SSW 4.3 mph 4.3 mph 98 % 0.0 in
10:56 5.4 °F 6.0 °F 1016.8 in South 4.0 mph 4.3 mph 98 % 0.0 in
11:01 5.4 °F 6.0 °F 1016.8 in Calm   6.1 mph 98 % 0.0 in
11:06 5.5 °F 6.0 °F 1016.8 in Calm   6.1 mph 98 % 0.0 in
11:11 5.6 °F 6.0 °F 1016.8 in South 6.9 mph 9.0 mph 98 % 0.0 in
11:17 5.7 °F 6.0 °F 1016.8 in Calm   9.0 mph 98 % 0.0 in
11:22 5.8 °F 6.0 °F 1016.8 in Calm   4.3 mph 98 % 0.0 in
11:27 6.4 °F 6.0 °F 1016.8 in Calm   9.7 mph 98 % 0.0 in
11:32 6.6 °F 7.0 °F 1016.8 in Calm   9.7 mph 98 % 0.0 in
11:37 6.8 °F 7.0 °F 1016.8 in SW 8.7 mph 9.7 mph 98 % 0.0 in
11:42 6.8 °F 7.0 °F 1016.8 in SSW 7.6 mph 9.7 mph 98 % 0.0 in
11:47 6.8 °F 7.0 °F 1016.8 in SW 11.6 mph 11.6 mph 98 % 0.0 in
11:52 6.8 °F 7.0 °F 1016.8 in SW 7.9 mph 11.9 mph 98 % 0.0 in
11:57 6.8 °F 7.0 °F 1016.8 in WSW 9.7 mph 12.6 mph 98 % 0.0 in
12:02 7.0 °F 7.0 °F 1016.8 in Calm   12.6 mph 98 % 0.0 in
12:07 7.2 °F 7.0 °F 1016.8 in Calm   10.5 mph 98 % 0.0 in
12:12 7.5 °F 8.0 °F 1016.8 in WSW 10.1 mph 10.1 mph 98 % 0.0 in
12:17 7.9 °F 8.0 °F 1016.8 in WSW 8.7 mph 10.1 mph 98 % 0.0 in
12:22 8.2 °F 8.0 °F 1016.8 in SSW 10.1 mph 10.1 mph 98 % 0.0 in
12:27 8.2 °F 8.0 °F 1016.8 in West 9.3 mph 10.1 mph 98 % 0.0 in
12:32 8.2 °F 8.0 °F 1016.8 in WSW 9.3 mph 10.5 mph 98 % 0.0 in
12:37 8.2 °F 8.0 °F 1016.8 in SW 9.3 mph 10.5 mph 98 % 0.0 in
12:42 8.2 °F 8.0 °F 1016.8 in WSW 7.9 mph 10.1 mph 98 % 0.0 in
12:47 8.1 °F 8.0 °F 1018.2 in WSW 5.8 mph 10.1 mph 98 % 0.0 in
12:52 8.1 °F 8.0 °F 1018.2 in WSW 7.9 mph 10.1 mph 98 % 0.0 in
12:57 8.1 °F 8.0 °F 1018.2 in WSW 6.4 mph 10.1 mph 98 % 0.0 in
13:02 8.2 °F 8.0 °F 1018.2 in WSW 12.2 mph 12.2 mph 98 % 0.0 in
13:07 8.2 °F 8.0 °F 1018.2 in West 9.0 mph 12.2 mph 98 % 0.0 in
13:12 8.4 °F 9.0 °F 1018.2 in WSW 9.3 mph 12.6 mph 98 % 0.0 in
13:17 8.4 °F 9.0 °F 1016.8 in West 11.6 mph 12.6 mph 98 % 0.0 in
13:23 8.4 °F 9.0 °F 1016.8 in West 9.0 mph 11.6 mph 98 % 0.0 in
13:28 8.4 °F 9.0 °F 1016.8 in WSW 9.7 mph 12.2 mph 98 % 0.0 in
13:33 8.4 °F 9.0 °F 1018.2 in West 7.2 mph 12.2 mph 98 % 0.0 in
13:38 8.5 °F 9.0 °F 1018.2 in Calm   11.6 mph 98 % 0.0 in
13:43 8.4 °F 9.0 °F 1018.2 in Calm   11.9 mph 98 % 0.0 in
13:48 8.4 °F 9.0 °F 1018.2 in West 7.2 mph 11.9 mph 98 % 0.0 in
13:53 8.5 °F 9.0 °F 1018.2 in Calm   8.7 mph 98 % 0.0 in
13:58 8.5 °F 9.0 °F 1018.2 in WSW 7.2 mph 9.0 mph 98 % 0.0 in
14:03 8.5 °F 9.0 °F 1018.2 in WSW 9.7 mph 9.7 mph 98 % 0.0 in
14:08 8.4 °F 9.0 °F 1018.2 in West 5.8 mph 9.7 mph 98 % 0.0 in
14:13 8.5 °F 9.0 °F 1018.2 in West 8.7 mph 10.5 mph 98 % 0.0 in
14:18 8.6 °F 9.0 °F 1018.2 in Calm   10.5 mph 98 % 0.0 in
14:23 8.7 °F 9.0 °F 1018.2 in Calm   10.1 mph 98 % 0.0 in
14:28 8.7 °F 9.0 °F 1018.2 in Calm   6.9 mph 98 % 0.0 in
14:33 8.7 °F 9.0 °F 1018.2 in WSW 6.1 mph 6.9 mph 97 % 0.0 in
14:38 8.7 °F 9.0 °F 1018.2 in Calm   6.9 mph 97 % 0.0 in
14:43 8.7 °F 9.0 °F 1018.2 in Calm   6.9 mph 97 % 0.0 in
14:48 8.8 °F 9.0 °F 1018.2 in Calm   4.0 mph 97 % 0.0 in
14:53 8.9 °F 9.0 °F 1018.2 in Calm   3.2 mph 97 % 0.0 in
14:58 8.9 °F 9.0 °F 1018.2 in Calm     97 % 0.0 in
15:03 9.0 °F 9.0 °F 1018.8 in Calm     96 % 0.0 in
15:08 9.1 °F 9.0 °F 1018.8 in Calm     96 % 0.0 in
15:13 9.1 °F 9.0 °F 1018.8 in Calm     96 % 0.0 in
15:18 9.0 °F 9.0 °F 1018.8 in Calm   5.0 mph 95 % 0.0 in
15:23 8.9 °F 9.0 °F 1018.8 in NNE 1.8 mph 5.0 mph 95 % 0.0 in
15:28 8.9 °F 9.0 °F 1018.8 in Calm   1.8 mph 95 % 0.0 in
15:33 9.0 °F 8.0 °F 1018.8 in Calm   1.8 mph 94 % 0.0 in
15:38 9.0 °F 8.0 °F 1018.8 in WSW 5.8 mph 6.1 mph 94 % 0.0 in
15:43 8.8 °F 8.0 °F 1018.8 in North 6.9 mph 14.3 mph 94 % 0.0 in
15:49 8.8 °F 8.0 °F 1018.8 in North 6.1 mph 14.3 mph 93 % 0.0 in
15:54 8.7 °F 8.0 °F 1018.8 in NNW 8.7 mph 9.3 mph 92 % 0.0 in
15:59 8.7 °F 8.0 °F 1019.9 in WNW 1.4 mph 8.7 mph 92 % 0.0 in
16:04 8.7 °F 8.0 °F 1019.9 in NNW 9.7 mph 9.7 mph 92 % 0.0 in
16:09 8.7 °F 8.0 °F 1019.9 in North 11.6 mph 11.6 mph 92 % 0.0 in
16:14 8.6 °F 7.0 °F 1019.9 in NW 6.4 mph 13.0 mph 89 % 0.0 in
16:19 8.6 °F 7.0 °F 1019.9 in NNW 8.7 mph 13.0 mph 88 % 0.0 in
16:24 8.5 °F 7.0 °F 1019.9 in WNW 6.1 mph 10.1 mph 88 % 0.0 in
16:29 8.5 °F 7.0 °F 1019.9 in WNW 2.1 mph 9.0 mph 89 % 0.0 in
16:34 8.4 °F 7.0 °F 1019.9 in North 5.8 mph 7.9 mph 88 % 0.0 in
16:39 8.4 °F 7.0 °F 1019.9 in NW 5.8 mph 7.9 mph 88 % 0.0 in
16:44 8.3 °F 7.0 °F 1019.9 in NNW 6.1 mph 9.0 mph 87 % 0.0 in
16:49 8.1 °F 6.0 °F 1019.9 in Calm   9.0 mph 87 % 0.0 in
16:54 8.0 °F 6.0 °F 1019.9 in NW 8.7 mph 8.7 mph 87 % 0.0 in
16:59 7.9 °F 6.0 °F 1020.9 in NNW 1.4 mph 8.7 mph 87 % 0.0 in
17:04 7.7 °F 6.0 °F 1020.9 in NW 6.9 mph 7.9 mph 87 % 0.0 in
17:09 7.5 °F 6.0 °F 1020.9 in WNW 2.1 mph 7.6 mph 87 % 0.0 in
17:14 7.5 °F 6.0 °F 1020.9 in Calm   7.6 mph 88 % 0.0 in
17:19 7.3 °F 6.0 °F 1020.9 in Calm   5.0 mph 88 % 0.0 in
17:24 7.0 °F 5.0 °F 1020.9 in Calm   2.6 mph 88 % 0.0 in
17:29 6.8 °F 5.0 °F 1020.9 in Calm   2.6 mph 89 % 0.0 in
17:34 6.5 °F 5.0 °F 1020.9 in Calm   2.1 mph 88 % 0.0 in
17:39 6.4 °F 5.0 °F 1020.9 in Calm   2.1 mph 89 % 0.0 in
17:44 6.4 °F 5.0 °F 1020.9 in NW 1.8 mph 5.0 mph 89 % 0.0 in
17:49 6.3 °F 5.0 °F 1020.9 in NNW 9.3 mph 9.3 mph 90 % 0.0 in
17:54 6.1 °F 5.0 °F 1020.9 in Calm   9.3 mph 91 % 0.0 in
17:59 6.0 °F 5.0 °F 1021.9 in Calm   6.4 mph 91 % 0.0 in
18:04 5.9 °F 5.0 °F 1021.9 in Calm   4.0 mph 91 % 0.0 in
18:09 5.7 °F 5.0 °F 1021.9 in Calm     91 % 0.0 in
18:14 5.7 °F 5.0 °F 1021.9 in Calm   5.0 mph 92 % 0.0 in
18:19 5.7 °F 5.0 °F 1021.9 in Calm   5.0 mph 93 % 0.0 in
18:24 5.7 °F 5.0 °F 1021.9 in Calm   5.5 mph 93 % 0.0 in
18:29 5.7 °F 5.0 °F 1021.9 in West 2.6 mph 5.5 mph 94 % 0.0 in
18:34 5.7 °F 5.0 °F 1021.9 in NNW 1.4 mph 5.8 mph 94 % 0.0 in
18:39 5.7 °F 5.0 °F 1021.9 in Calm   5.8 mph 95 % 0.0 in
18:44 5.7 °F 5.0 °F 1022.9 in Calm   4.0 mph 95 % 0.0 in
18:49 5.7 °F 5.0 °F 1022.9 in Calm   2.6 mph 95 % 0.0 in
18:54 5.8 °F 6.0 °F 1022.9 in Calm   4.0 mph 95 % 0.0 in
19:00 5.9 °F 6.0 °F 1022.9 in NW 6.1 mph 6.9 mph 96 % 0.0 in
19:05 6.0 °F 6.0 °F 1022.9 in West 2.1 mph 6.4 mph 96 % 0.0 in
19:10 6.1 °F 6.0 °F 1022.9 in Calm   6.4 mph 96 % 0.0 in
19:15 6.1 °F 6.0 °F 1021.9 in Calm   6.4 mph 96 % 0.0 in
19:20 6.2 °F 6.0 °F 1021.9 in Calm   6.4 mph 96 % 0.0 in
19:25 6.1 °F 6.0 °F 1021.9 in Calm   6.4 mph 96 % 0.0 in
19:30 6.1 °F 6.0 °F 1021.9 in Calm   4.0 mph 96 % 0.0 in
19:35 6.1 °F 6.0 °F 1021.9 in Calm   5.8 mph 96 % 0.0 in
19:40 6.0 °F 6.0 °F 1021.9 in Calm   5.8 mph 96 % 0.0 in
19:45 5.9 °F 6.0 °F 1022.9 in Calm     96 % 0.0 in
19:50 5.8 °F 6.0 °F 1022.9 in Calm   6.4 mph 95 % 0.0 in
19:55 5.7 °F 5.0 °F 1022.9 in Calm   6.4 mph 95 % 0.0 in
20:00 5.6 °F 5.0 °F 1023.9 in West 2.1 mph 6.4 mph 95 % 0.0 in
20:05 5.7 °F 6.0 °F 1023.9 in Calm   9.7 mph 96 % 0.0 in
20:10 5.8 °F 6.0 °F 1023.9 in Calm   9.7 mph 97 % 0.0 in
20:15 5.9 °F 6.0 °F 1024.9 in NW 3.2 mph 7.6 mph 97 % 0.0 in
20:20 6.0 °F 6.0 °F 1024.9 in Calm   10.5 mph 97 % 0.0 in
20:25 6.1 °F 6.0 °F 1024.9 in NW 1.4 mph 10.5 mph 97 % 0.0 in
20:30 6.1 °F 6.0 °F 1024.9 in West 2.1 mph 9.3 mph 97 % 0.0 in
20:35 6.1 °F 6.0 °F 1024.9 in WNW 4.0 mph 7.9 mph 96 % 0.0 in
20:40 6.1 °F 6.0 °F 1024.9 in NNE 4.3 mph 11.9 mph 96 % 0.0 in
20:46 6.2 °F 6.0 °F 1024.9 in North 2.1 mph 11.9 mph 96 % 0.0 in
20:51 6.2 °F 6.0 °F 1024.9 in NNW 5.0 mph 9.0 mph 96 % 0.0 in
20:56 6.3 °F 6.0 °F 1024.9 in WNW 4.0 mph 9.0 mph 96 % 0.0 in
21:01 6.3 °F 6.0 °F 1024.9 in West 6.9 mph 9.7 mph 95 % 0.0 in
21:06 6.3 °F 6.0 °F 1024.9 in WNW 5.8 mph 9.7 mph 95 % 0.0 in
21:11 6.3 °F 6.0 °F 1024.9 in Calm   7.2 mph 95 % 0.0 in
21:16 6.3 °F 6.0 °F 1024.9 in Calm   8.7 mph 95 % 0.0 in
21:21 6.3 °F 6.0 °F 1024.9 in NNW 1.4 mph 8.7 mph 94 % 0.0 in
21:26 6.3 °F 6.0 °F 1024.9 in Calm   4.0 mph 94 % 0.0 in
21:31 6.2 °F 6.0 °F 1024.9 in Calm   5.8 mph 94 % 0.0 in
21:36 6.2 °F 6.0 °F 1024.9 in Calm   5.8 mph 94 % 0.0 in
21:41 6.2 °F 6.0 °F 1024.9 in Calm   4.7 mph 94 % 0.0 in
21:46 6.2 °F 6.0 °F 1024.9 in Calm   4.7 mph 94 % 0.0 in
21:51 6.2 °F 6.0 °F 1024.9 in Calm   5.8 mph 94 % 0.0 in
21:56 6.2 °F 6.0 °F 1024.9 in Calm   5.8 mph 94 % 0.0 in
22:01 6.2 °F 6.0 °F 1024.9 in Calm   1.8 mph 94 % 0.0 in
22:07 6.1 °F 5.0 °F 1024.9 in Calm     94 % 0.0 in
22:12 6.1 °F 5.0 °F 1024.9 in Calm   5.0 mph 94 % 0.0 in
22:17 6.1 °F 5.0 °F 1026.0 in Calm   5.0 mph 94 % 0.0 in
22:22 5.9 °F 6.0 °F 1026.0 in Calm   4.3 mph 95 % 0.0 in
22:27 5.8 °F 6.0 °F 1026.0 in Calm   4.3 mph 95 % 0.0 in
22:32 5.7 °F 5.0 °F 1026.0 in Calm   4.3 mph 95 % 0.0 in
22:37 5.6 °F 5.0 °F 1026.0 in Calm   4.3 mph 95 % 0.0 in
22:42 5.6 °F 5.0 °F 1026.0 in Calm   2.6 mph 95 % 0.0 in
22:48 5.5 °F 5.0 °F 1026.0 in Calm   1.8 mph 95 % 0.0 in
22:53 5.4 °F 5.0 °F 1026.0 in Calm     95 % 0.0 in
22:58 5.4 °F 5.0 °F 1026.0 in Calm   2.6 mph 95 % 0.0 in
23:03 5.4 °F 5.0 °F 1026.0 in Calm   3.2 mph 96 % 0.0 in
23:08 5.3 °F 5.0 °F 1026.0 in Calm   3.2 mph 96 % 0.0 in
23:13 5.3 °F 5.0 °F 1026.0 in Calm   4.7 mph 96 % 0.0 in
23:18 5.2 °F 5.0 °F 1026.0 in Calm   4.7 mph 96 % 0.0 in
23:23 5.1 °F 5.0 °F 1026.0 in Calm   4.7 mph 96 % 0.0 in
23:28 5.1 °F 5.0 °F 1026.0 in Calm     97 % 0.0 in
23:33 5.2 °F 5.0 °F 1026.0 in Calm     97 % 0.0 in
23:38 5.2 °F 5.0 °F 1026.0 in Calm     97 % 0.0 in
23:43 5.2 °F 5.0 °F 1026.0 in Calm     97 % 0.0 in
23:48 5.1 °F 5.0 °F 1026.0 in Calm     98 % 0.0 in
23:53 5.1 °F 5.0 °F 1026.0 in Calm     98 % 0.0 in
23:58 5.1 °F 5.0 °F 1026.0 in Calm     98 % 0.0 in
Le Gheer Warneton
Courtoisie de Weather Underground - 2.25 mb

Mise a jour : 21/02/2018 02:25:11
Généré par Cumulus 1.9.4 (1099)